1498492800.15,37864,21.94,73990.0,8.15,7.23,3.89,0,*7B
1498492801.31,37865,21.94,73986.8,8.15,7.33,4.15,0,*79
1498492802.51,37866,21.94,73988.0,8.15,7.91,4.27,0,*73
1498492803.72,37867,21.94,73984.5,8.11,8.15,4.07,0,*77
1498492804.89,37868,21.94,73990.5,8.15,7.79,4.23,0,*7F
1498492806.09,37869,21.94,73990.8,8.15,7.69,4.23,0,*7F
1498492807.31,37870,21.94,73986.5,8.11,7.91,4.19,0,*7D
1498492808.54,37871,21.94,73990.3,8.11,7.87,4.33,0,*73
1498492809.77,37872,21.94,73986.5,8.17,7.87,4.37,0,*72
1498492811.01,37873,21.94,73990.8,8.17,7.95,4.37,0,*70
1498492812.24,37874,21.94,73990.3,8.17,7.61,4.41,0,*7D
1498492813.45,37875,21.94,73990.5,8.17,7.51,4.37,0,*7E
1498492814.71,37876,21.94,73990.8,8.17,6.73,4.31,0,*7A
1498492815.91,37877,21.94,73992.0,8.17,7.05,4.49,0,*74
1498492817.15,37878,21.94,73990.3,8.17,6.35,4.49,0,*79
1498492818.36,37879,21.94,73986.8,8.19,6.47,4.49,0,*73
1498492819.59,37880,21.94,73990.0,8.17,6.47,4.49,0,*7B
1498492820.8,37881,21.94,73990.3,8.19,6.57,4.57,0,*7A
1498492822.05,37882,21.94,73988.3,8.21,6.39,4.59,0,*74
1498492823.26,37883,21.94,73992.8,8.19,5.89,4.53,0,*7C
1498492824.46,37884,21.94,73988.8,8.21,5.71,4.53,0,*77
1498492825.64,37885,21.94,73986.3,8.19,5.67,4.41,0,*79
1498492826.82,37886,21.94,73990.3,8.19,5.67,4.49,0,*72
1498492828.04,37887,21.94,73990.8,8.19,6.03,4.75,0,*7D
1498492829.28,37888,21.94,73994.3,8.19,5.93,4.75,0,*78
1498492830.51,37889,21.94,73988.5,8.19,5.55,4.75,0,*73
1498492831.74,37890,21.94,73988.3,8.19,5.01,4.67,0,*79
1498492832.98,37891,21.94,73992.3,8.17,4.37,4.63,0,*76
1498492834.19,37892,21.94,73990.5,8.19,5.23,4.63,0,*7F
1498492835.4,37893,21.94,73994.3,8.19,7.09,4.79,0,*7F
1498492836.63,37894,21.94,73988.8,8.19,6.17,4.63,0,*7D
1498492837.82,37895,21.94,73988.5,8.19,4.07,4.41,0,*7F
1498492839.0,37896,21.94,73992.3,8.19,4.37,4.53,0,*7C
1498492840.21,37897,21.94,73988.5,8.19,4.67,4.53,0,*78
1498492841.41,37898,21.94,73988.5,8.19,4.53,4.67,0,*77
1498492842.65,37899,21.94,73988.5,8.19,4.05,4.75,0,*76
1498492843.87,37900,21.88,73990.5,8.19,4.07,4.79,0,*79
1498492845.04,37901,21.94,73990.8,8.19,5.11,4.49,0,*7D
1498492846.24,37902,21.94,73990.0,8.21,7.33,4.89,0,*7B
1498492847.44,37903,21.94,73990.8,8.21,7.51,5.11,0,*7E
1498492848.68,37904,21.94,73992.0,8.21,7.65,5.23,0,*7F
1498492849.91,37905,21.94,73992.8,8.21,7.45,5.01,0,*7C
1498492851.16,37906,21.88,73990.8,8.21,7.11,4.59,0,*72
1498492852.34,37907,21.94,73992.0,8.19,6.93,4.57,0,*7D
1498492853.56,37908,21.94,73992.8,8.21,5.51,4.45,0,*77
1498492854.74,37909,21.94,73994.5,8.19,4.85,4.37,0,*70
1498492855.94,37910,21.94,73992.0,8.17,4.89,4.49,0,*73
1498492857.18,37911,21.94,73990.8,8.17,3.97,4.37,0,*73
1498492858.41,37912,21.94,73990.5,8.17,4.05,4.41,0,*7D
1498492859.62,37913,21.94,73992.0,8.17,4.07,4.53,0,*7D
1498492860.82,37914,21.94,73994.0,8.17,4.15,4.49,0,*72
1498492862.03,37915,21.94,73990.5,8.17,4.15,4.53,0,*78
1498492863.29,37916,21.94,73994.3,8.17,4.31,4.67,0,*7A
1498492864.55,37917,21.88,73990.0,8.17,4.31,4.63,0,*7F
1498492865.75,37918,21.88,73990.5,8.15,4.27,4.59,0,*7C
1498492866.92,37919,21.94,73992.3,8.15,4.23,4.49,0,*78
1498492868.09,37920,21.94,73988.5,8.15,4.45,4.53,0,*79
1498492869.3,37921,21.94,73990.5,8.15,5.89,4.45,0,*7E
1498492870.53,37922,21.88,73988.8,8.11,6.29,4.59,0,*7D
1498492871.78,37923,21.94,73994.0,8.11,5.73,4.79,0,*72
1498492873.02,37924,21.94,73990.3,8.11,5.95,4.71,0,*75
1498492874.25,37925,21.94,73988.8,8.11,5.71,4.67,0,*79
1498492875.5,37926,21.88,73990.0,8.11,5.85,4.59,0,*7C
1498492876.7,37927,21.94,73988.5,8.11,5.99,4.49,0,*71
1498492877.9,37928,21.94,73988.0,8.11,5.99,4.49,0,*7E
1498492879.09,37929,21.94,73988.3,8.11,6.07,4.49,0,*7B
1498492880.3,37930,21.88,73988.8,8.09,5.93,4.45,0,*78
1498492881.48,37931,21.88,73986.0,8.09,5.63,4.19,0,*7F
1498492882.65,37932,21.94,73986.5,8.09,5.49,4.07,0,*7B
1498492883.85,37933,21.94,73986.8,8.07,5.37,3.93,0,*77
1498492885.07,37934,21.88,73986.8,8.07,5.37,3.75,0,*78
1498492886.29,37935,21.94,73988.8,8.07,5.33,3.67,0,*7E
1498492887.48,37936,21.94,73988.8,8.09,5.29,3.53,0,*7F
1498492888.68,37937,21.94,73984.3,8.07,5.23,3.25,0,*7B
1498492889.9,37938,21.94,73984.8,8.07,4.97,2.91,0,*74
1498492891.13,37939,21.94,73986.8,8.07,4.89,2.73,0,*76
1498492892.36,37940,21.88,73986.0,8.05,5.05,2.81,0,*72
1498492893.56,37941,21.94,73986.8,8.05,5.07,2.89,0,*79
1498492894.76,37942,21.94,73986.8,8.05,5.55,2.61,0,*7B
1498492895.99,37943,21.94,73984.5,8.05,4.71,2.81,0,*73
1498492897.19,37944,21.94,73984.3,8.05,5.19,2.39,0,*78
1498492898.43,37945,21.94,73984.5,8.03,3.93,2.51,0,*75
1498492899.66,37946,21.94,73988.8,8.05,3.67,2.39,0,*75
1498492900.92,37947,21.94,73982.0,8.03,3.79,2.51,0,*73
1498492902.13,37948,21.88,73982.8,8.05,3.81,2.39,0,*73
1498492903.38,37949,21.94,73984.5,8.03,3.07,2.25,0,*77
1498492904.62,37950,21.88,73980.3,8.03,2.61,1.85,0,*77
1498492905.84,37951,21.88,73980.3,8.01,2.43,1.51,0,*7D
1498492907.09,37952,21.94,73980.3,7.99,2.01,1.47,0,*71
1498492908.33,37953,21.94,73988.0,7.99,2.21,1.71,0,*77
1498492909.57,37954,21.94,73986.0,7.99,2.21,1.71,0,*70
1498492910.75,37955,21.94,73984.8,7.97,2.27,1.79,0,*71
1498492911.98,37956,21.94,73986.0,7.97,2.21,2.21,0,*7A
1498492913.21,37957,21.88,73980.5,7.97,1.71,2.21,0,*7D
1498492914.44,37958,21.94,73982.5,7.97,1.67,2.43,0,*71
1498492915.67,37959,21.94,73982.8,7.95,1.41,2.47,0,*72
1498492916.92,37960,21.88,73984.5,7.99,1.47,2.73,0,*75
1498492918.15,37961,21.88,73986.0,7.97,1.59,2.89,0,*70
1498492919.35,37962,21.94,73986.3,7.97,1.59,2.91,0,*7A
1498492920.61,37963,21.88,73986.3,7.95,1.51,2.89,0,*78
1498492921.84,37964,21.94,73986.3,7.97,1.43,2.81,0,*76
1498492923.04,37965,21.94,73986.0,7.97,1.59,2.91,0,*7D
1498492924.27,37966,21.94,73986.0,7.97,1.67,2.77,0,*7B
1498492925.48,37967,21.94,73984.3,7.97,1.83,2.81,0,*79
1498492926.72,37968,21.88,73984.8,7.97,1.93,2.89,0,*7F
1498492927.94,37969,21.88,73986.0,7.99,2.21,2.91,0,*73
1498492929.19,37970,21.88,73984.0,7.99,2.05,2.51,0,*71
1498492930.45,37971,21.94,73988.0,7.99,2.81,2.73,0,*7C
1498492931.68,37972,21.88,73986.0,8.01,2.59,2.77,0,*70
1498492932.91,37973,21.94,73986.8,7.99,3.03,2.65,0,*72
1498492934.17,37974,21.88,73984.8,7.99,2.55,2.51,0,*70
1498492935.42,37975,21.94,73990.3,7.99,2.43,2.43,0,*75
1498492936.65,37976,21.88,73988.0,7.99,2.65,2.55,0,*75
1498492937.9,37977,21.88,73984.8,7.99,2.89,2.73,0,*72
1498492939.11,37978,21.94,73988.0,7.97,2.99,2.89,0,*77
1498492940.36,37979,21.88,73988.3,7.99,3.03,3.03,0,*79
1498492941.62,37980,21.88,73984.5,7.99,3.15,3.23,0,*7A
1498492942.84,37981,21.94,73990.3,8.01,3.19,3.37,0,*7C
1498492944.08,37982,21.88,73988.0,8.01,3.15,3.41,0,*72
1498492945.31,37983,21.88,73988.8,7.99,3.37,3.63,0,*7D
1498492946.53,37984,21.88,73984.5,8.01,3.53,3.79,0,*7D
1498492947.73,37985,21.94,73990.0,7.99,3.81,3.85,0,*7E
1498492948.94,37986,21.94,73990.5,7.99,3.93,3.93,0,*79
1498492950.16,37987,21.94,73990.3,8.01,4.01,3.97,0,*7E
1498492951.36,37988,21.88,73984.8,8.01,4.07,3.97,0,*77
1498492952.57,37989,21.94,73990.5,7.99,4.07,3.85,0,*7B
1498492953.77,37990,21.88,73986.0,7.99,4.57,3.89,0,*7A
1498492954.97,37991,21.88,73984.8,7.99,4.27,3.85,0,*70
1498492956.15,37992,21.88,73988.5,8.01,4.37,3.89,0,*70
1498492957.33,37993,21.94,73988.0,8.01,4.45,3.85,0,*78
1498492958.52,37994,21.94,73990.8,8.01,4.49,3.79,0,*70
1498492959.7,37995,21.94,73990.5,8.01,4.81,3.63,0,*7E
1498492960.93,37996,21.88,73984.3,8.01,5.01,3.67,0,*70
1498492962.1,37997,21.88,73984.5,8.01,5.49,3.63,0,*79
1498492963.35,37998,21.88,73986.5,8.03,5.51,3.71,0,*7E
1498492964.54,37999,21.88,73986.0,8.01,5.29,3.53,0,*72
1498492965.77,38000,21.88,73986.8,7.99,5.11,3.33,0,*77
1498492967.0,38001,21.88,73986.3,8.01,4.67,3.15,0,*7C
1498492968.2,38002,21.94,73990.0,8.01,4.57,3.15,0,*7C
1498492969.41,38003,21.88,73988.3,8.01,4.59,3.25,0,*70
1498492970.65,38004,21.88,73990.0,8.01,4.71,3.37,0,*7E
1498492971.85,38005,21.94,73988.5,8.01,5.15,3.37,0,*7C
1498492973.02,38006,21.88,73986.8,8.01,4.81,3.29,0,*7C
1498492974.25,38007,21.88,73990.0,8.01,4.31,3.37,0,*79
1498492975.46,38008,21.88,73986.8,8.01,3.89,3.19,0,*7E
1498492976.69,38009,21.88,73986.8,8.01,3.75,3.19,0,*7C
1498492977.9,38010,21.88,73990.0,8.01,3.67,3.25,0,*78
1498492979.12,38011,21.88,73988.5,7.99,3.59,3.45,0,*7C
1498492980.35,38012,21.88,73988.8,8.01,3.53,3.49,0,*77
1498492981.58,38013,21.88,73990.8,8.03,3.45,3.63,0,*7B
1498492982.84,38014,21.88,73990.3,8.03,3.41,3.71,0,*7B
1498492984.04,38015,21.88,73988.5,8.05,3.29,3.79,0,*7A
1498492985.26,38016,21.88,73988.0,8.03,2.99,3.67,0,*7A
1498492986.5,38017,21.88,73988.0,8.03,3.11,3.81,0,*72
1498492987.76,38018,21.88,73990.5,8.03,3.23,4.05,0,*77
1498492988.96,38019,21.88,73990.0,8.01,3.37,4.23,0,*75
1498492990.17,38020,21.88,73988.5,8.01,3.41,4.37,0,*7B
1498492991.35,38021,21.88,73988.5,8.01,3.59,4.49,0,*7A
1498492992.53,38022,21.88,73988.8,8.01,3.63,4.57,0,*7F
1498492993.73,38023,21.88,73994.5,8.03,3.55,4.41,0,*7E
1498492994.96,38024,21.88,73992.3,8.03,3.53,4.37,0,*7E
1498492996.14,38025,21.88,73988.3,8.01,3.25,4.19,0,*70
1498492997.34,38026,21.88,73992.5,8.03,3.55,4.37,0,*7A
1498492998.57,38027,21.88,73988.3,8.03,3.89,4.59,0,*72
1498492999.8,38028,21.88,73988.8,8.01,4.01,4.67,0,*75
1498493001.01,38029,21.88,73988.8,8.01,4.19,4.79,0,*72
1498493002.22,38030,21.88,73990.5,8.01,4.37,4.79,0,*76
1498493003.46,38031,21.88,73990.5,8.03,4.53,4.75,0,*7B
1498493004.69,38032,21.88,73988.0,8.01,4.67,4.79,0,*71
1498493005.9,38033,21.88,73990.5,8.01,5.19,4.93,0,*7C
1498493007.11,38034,21.88,73988.8,8.01,5.19,5.01,0,*71
1498493008.35,38035,21.88,73988.3,8.03,5.41,4.97,0,*71
1498493009.56,38036,21.88,73988.3,8.03,6.83,5.07,0,*77
1498493010.77,38037,21.88,73990.3,8.03,8.01,5.33,0,*75
1498493011.98,38038,21.88,73990.8,8.03,6.11,5.19,0,*7D
1498493013.2,38039,21.88,73986.8,8.03,5.29,5.05,0,*79
1498493014.41,38040,21.88,73992.3,8.05,5.41,4.97,0,*75
1498493015.59,38041,21.88,73988.8,8.05,5.41,5.19,0,*73
1498493016.79,38042,21.88,73988.0,8.05,5.55,5.07,0,*7A
1498493018.02,38043,21.88,73994.3,8.03,5.41,5.05,0,*7A
1498493019.27,38044,21.88,73990.8,8.03,5.77,4.93,0,*76
1498493020.53,38045,21.88,73990.8,8.03,6.61,5.05,0,*7D
1498493021.74,38046,21.88,73992.0,8.05,6.57,5.07,0,*7F
1498493022.97,38047,21.88,73988.0,8.05,6.61,5.05,0,*79
1498493024.16,38048,21.88,73992.8,8.05,6.53,4.81,0,*7A
1498493025.39,38049,21.88,73988.3,8.07,6.61,4.85,0,*7C
1498493026.59,38050,21.88,73990.8,8.07,6.97,4.89,0,*71
1498493027.82,38051,21.88,73994.0,8.05,7.11,4.63,0,*79
1498493029.05,38052,21.88,73994.8,8.07,7.27,4.85,0,*75
1498493030.29,38053,21.88,73992.0,8.07,9.53,5.89,0,*74
1498493031.47,38054,21.88,73992.3,8.09,9.21,5.95,0,*75
1498493032.64,38055,21.88,73992.3,8.05,8.05,4.53,0,*74
1498493033.81,38056,21.88,73992.3,8.05,7.37,4.49,0,*72
1498493035.01,38057,21.88,73996.3,8.05,4.63,4.27,0,*79
1498493036.21,38058,21.88,73988.5,8.05,4.59,4.37,0,*7E
1498493037.4,38059,21.88,73992.3,8.05,5.99,4.37,0,*72
1498493038.58,38060,21.88,73992.3,8.05,5.19,4.53,0,*72
1498493039.8,38061,21.88,73992.0,8.03,5.33,4.59,0,*77
1498493041.0,38062,21.88,73992.0,8.05,5.29,4.71,0,*73
1498493042.2,38063,21.88,73994.3,8.05,5.29,4.63,0,*71
1498493043.37,38064,21.94,73998.3,8.05,5.07,4.49,0,*72
1498493044.54,38065,21.88,73992.3,8.05,5.33,4.49,0,*74
1498493045.72,38066,21.88,73990.0,8.05,5.67,4.53,0,*7D
1498493046.92,38067,21.88,73994.8,8.05,5.11,4.59,0,*77
1498493048.15,38068,21.88,73992.3,8.09,5.01,4.67,0,*78
1498493049.38,38069,21.88,73992.8,8.07,5.01,4.53,0,*70
1498493050.57,38070,21.88,73994.5,8.07,5.37,4.37,0,*7F
1498493051.75,38071,21.88,73994.3,8.05,5.29,4.41,0,*72
1498493052.94,38072,21.88,73992.8,8.05,5.33,4.59,0,*73
1498493054.12,38073,21.88,73992.3,8.05,5.33,4.49,0,*73
1498493055.31,38074,21.88,73994.0,8.05,5.51,4.53,0,*7B
1498493056.51,38075,21.88,73992.0,8.07,5.95,4.45,0,*77
1498493057.71,38076,21.88,73992.0,8.07,5.11,4.45,0,*78
1498493058.94,38077,21.88,73992.0,8.07,4.97,4.57,0,*75
1498493060.14,38078,21.88,73988.8,8.05,4.75,4.41,0,*73
1498493061.32,38079,21.88,73992.3,8.05,4.85,4.53,0,*7E
1498493062.49,38080,21.88,73992.5,8.05,4.85,4.49,0,*73
1498493063.72,38081,21.88,73994.0,8.07,5.01,4.57,0,*72
1498493064.94,38082,21.88,73988.8,8.07,4.75,4.57,0,*73
1498493066.17,38083,21.88,73992.8,8.07,5.07,4.63,0,*71
1498493067.39,38084,21.88,73994.0,8.07,5.07,4.63,0,*76
1498493068.59,38085,21.88,73992.0,8.07,5.07,4.45,0,*73
1498493069.82,38086,21.88,73988.3,8.07,4.97,4.37,0,*7D
1498493071.07,38087,21.88,73990.8,8.07,4.75,4.31,0,*76
1498493072.27,38088,21.88,73988.8,8.05,4.79,4.37,0,*71
1498493073.47,38089,21.88,73990.5,8.05,4.97,4.41,0,*71
1498493074.65,38090,21.88,73990.5,8.05,4.85,4.33,0,*7F
1498493075.86,38091,21.88,73992.8,8.05,4.93,4.41,0,*7C
1498493077.06,38092,21.88,73992.3,8.05,5.11,4.59,0,*7D
1498493078.29,38093,21.88,73992.8,8.03,5.19,4.59,0,*72
1498493079.52,38094,21.88,73992.0,8.03,5.33,4.71,0,*77
1498493080.72,38095,21.88,73992.0,8.05,5.41,4.63,0,*76
1498493081.95,38096,21.88,73992.8,8.07,5.59,4.75,0,*79
1498493083.15,38097,21.88,73994.8,8.07,5.49,4.53,0,*7D
1498493084.36,38098,21.88,73990.8,8.07,5.27,4.07,0,*7B
1498493085.54,38099,21.88,73990.8,8.05,5.19,3.81,0,*7C
1498493086.77,38100,21.88,73992.8,8.05,5.05,3.45,0,*78
1498493087.98,38101,21.88,73992.0,8.05,5.19,3.33,0,*75
1498493089.17,38102,21.88,73988.0,8.05,5.07,3.23,0,*78
1498493090.37,38103,21.88,73992.3,8.05,4.97,2.99,0,*71
1498493091.6,38104,21.88,73994.0,8.05,4.93,2.81,0,*7B
1498493092.8,38105,21.88,73990.3,8.05,4.37,2.47,0,*7E
1498493094.03,38106,21.88,73994.3,8.05,4.05,1.97,0,*72
1498493095.21,38107,21.88,73994.0,8.05,3.89,1.79,0,*70
1498493096.4,38108,21.88,73994.0,8.05,4.01,1.79,0,*78
1498493097.63,38109,21.88,73994.5,8.05,3.79,1.55,0,*7F
1498493098.86,38110,21.88,73994.8,8.03,8.01,4.59,0,*7C
1498493100.07,38111,21.88,73994.0,8.03,3.33,1.41,0,*7B
1498493101.3,38112,21.88,73998.0,8.05,2.39,1.17,0,*76
1498493102.53,38113,21.88,73994.0,8.03,2.01,1.05,0,*79
1498493103.73,38114,21.88,73992.3,8.03,1.79,1.05,0,*72
1498493104.95,38115,21.88,73994.0,8.03,1.43,1.05,0,*7A
1498493106.21,38116,21.88,73998.0,8.03,1.25,1.13,0,*7E
1498493107.44,38117,21.88,73994.8,8.03,1.01,1.25,0,*7C
1498493108.68,38118,21.88,73994.3,8.03,0.59,1.25,0,*4F
1498493109.89,38119,21.88,73994.3,8.03,0.51,1.41,0,*44
1498493111.1,38120,21.88,73994.0,8.05,0.29,1.43,0,*45
1498493112.34,38121,21.88,73998.3,8.03,0.17,1.63,0,*4D
1498493113.55,38122,21.88,73996.8,8.01,0.67,1.63,0,*4B
1498493114.77,38123,21.88,73994.0,8.01,0.17,1.63,0,*4D
1498493115.95,38124,21.88,73996.8,8.01,-0.19,1.83,0,*67
1498493117.2,38125,21.88,73996.5,7.99,-0.23,1.93,0,*60
1498493118.4,38126,21.88,73992.5,8.01,-0.19,2.13,0,*6F
1498493119.64,38127,21.88,73994.0,7.99,-0.11,2.43,0,*6D
1498493120.83,38128,21.88,73992.5,8.01,0.13,2.65,0,*47
1498493122.07,38129,21.88,73992.8,7.99,-0.11,2.51,0,*60
1498493123.26,38130,21.88,73994.0,7.99,1.83,2.91,0,*73
1498493124.52,38131,21.88,73988.3,7.99,3.45,3.03,0,*70
1498493125.77,38132,21.88,73988.3,7.99,6.51,3.23,0,*71
1498493127.03,38133,21.88,73994.0,7.99,4.97,3.03,0,*7A
1498493128.21,38134,21.88,73990.3,7.97,4.19,2.91,0,*7F
1498493129.44,38135,21.88,73986.5,7.97,6.17,3.23,0,*7A
1498493130.7,38136,21.88,73988.5,7.99,6.35,3.71,0,*70
1498493131.88,38137,21.88,73988.0,7.97,5.11,2.99,0,*7D
1498493133.13,38138,21.88,73988.0,7.95,4.71,2.85,0,*7A
1498493134.33,38139,21.88,73988.0,7.95,5.07,2.95,0,*7A
1498493135.56,38140,21.88,73986.5,7.95,4.41,2.85,0,*76
1498493136.79,38141,21.88,73988.5,7.95,1.01,2.73,0,*7F
1498493138.01,38142,21.88,73990.3,7.93,0.17,2.69,0,*47
1498493139.24,38143,21.88,73990.8,7.93,1.67,2.69,0,*70
1498493140.4,38144,21.88,73988.0,7.93,0.43,2.99,0,*4F
1498493141.59,38145,21.88,73988.3,7.93,2.95,3.29,0,*7D
1498493142.77,38146,21.88,73990.8,7.89,2.35,3.25,0,*73
1498493143.95,38147,21.88,73986.3,7.93,3.29,3.55,0,*72
1498493145.16,38148,21.88,73990.5,7.93,1.97,3.59,0,*76
1498493146.36,38149,21.88,73986.8,7.93,2.25,3.81,0,*78
1498493147.57,38150,21.88,73988.5,7.89,2.35,3.79,0,*7D
1498493148.75,38151,21.88,73988.0,7.93,2.35,3.93,0,*73
1498493149.93,38152,21.88,73990.3,7.93,2.35,3.93,0,*70
1498493151.16,38153,21.88,73988.0,7.89,2.25,4.01,0,*77
1498493152.37,38154,21.88,73986.3,7.93,2.39,3.93,0,*7A
1498493153.61,38155,21.88,73988.0,7.93,2.47,4.05,0,*7A
1498493154.81,38156,21.88,73988.8,7.93,2.51,4.11,0,*7B
1498493156.02,38157,21.88,73986.8,7.93,2.47,4.15,0,*79
1498493157.23,38158,21.88,73986.8,7.95,2.61,4.23,0,*71
1498493158.45,38159,21.88,73988.0,7.95,2.73,4.11,0,*72
1498493159.67,38160,21.88,73988.0,7.95,2.77,4.15,0,*78
1498493160.87,38161,21.88,73990.3,7.95,2.99,4.15,0,*79
1498493162.11,38162,21.88,73988.5,7.95,3.07,4.23,0,*79
1498493163.34,38163,21.88,73988.8,7.95,3.29,4.05,0,*70
1498493164.6,38164,21.88,73990.3,7.95,5.81,4.31,0,*74
1498493165.83,38165,21.88,73990.3,7.95,6.43,4.49,0,*77
1498493167.07,38166,21.88,73988.5,7.93,6.91,4.31,0,*72
1498493168.27,38167,21.88,73990.0,7.93,5.29,4.05,0,*74
1498493169.48,38168,21.88,73988.0,7.93,6.61,4.37,0,*75
1498493170.68,38169,21.88,73990.0,7.89,8.61,4.59,0,*79
1498493171.89,38170,21.88,73986.8,7.89,7.65,5.19,0,*7F
1498493173.12,38171,21.88,73990.3,7.89,3.79,3.19,0,*71
1498493174.36,38172,21.88,73988.5,7.89,3.75,3.37,0,*72
1498493175.57,38173,21.88,73986.8,7.85,3.23,2.91,0,*71
1498493176.83,38174,21.88,73988.0,7.87,3.11,2.77,0,*7D
1498493178.07,38175,21.88,73992.0,7.85,3.15,2.69,0,*75
1498493179.31,38176,21.88,73988.5,7.85,3.15,2.77,0,*79
1498493180.56,38177,21.88,73984.8,7.83,3.23,2.77,0,*7B
1498493181.79,38178,21.88,73988.5,7.81,3.33,2.77,0,*77
1498493183.0,38179,21.88,73984.8,7.81,3.33,2.65,0,*75
1498493184.23,38180,21.88,73988.5,7.81,3.19,2.39,0,*72
1498493185.45,38181,21.88,73990.3,7.79,3.19,2.47,0,*7D
1498493186.67,38182,21.81,73980.3,7.79,3.03,2.25,0,*71
1498493187.91,38183,21.88,73986.5,7.77,2.59,1.83,0,*7F
1498493189.14,38184,21.88,73986.8,7.75,2.51,1.85,0,*74
1498493190.34,38185,21.88,73984.5,7.75,2.39,1.79,0,*78
1498493191.57,38186,21.88,73984.5,7.73,2.17,1.83,0,*74
1498493192.79,38187,21.88,73982.5,7.73,1.93,1.83,0,*7A
1498493194.03,38188,21.88,73984.0,7.73,1.89,1.93,0,*7F
1498493195.25,38189,21.88,73982.5,7.71,1.63,1.93,0,*78
1498493196.48,38190,21.88,73982.3,7.67,1.29,2.09,0,*79
1498493197.72,38191,21.88,73982.5,7.67,1.29,2.51,0,*75
1498493198.95,38192,21.88,73982.0,7.71,1.55,3.07,0,*78
1498493200.18,38193,21.88,73982.0,7.67,1.47,3.15,0,*7E
1498493201.38,38194,21.88,73982.0,7.67,1.71,3.55,0,*78
1498493202.58,38195,21.88,73984.5,7.71,3.19,3.89,0,*73
1498493203.75,38196,21.88,73984.3,7.67,7.05,4.81,0,*71
1498493204.93,38197,21.88,73984.5,7.67,4.33,3.89,0,*79
1498493206.1,38198,21.88,73986.3,7.67,4.81,4.15,0,*7D
1498493207.29,38199,21.88,73982.5,7.67,5.77,4.49,0,*7D
1498493208.49,38200,21.88,73984.5,7.67,8.13,6.79,0,*70
1498493209.69,38201,21.88,73986.8,7.67,7.23,7.37,0,*76
1498493210.89,38202,21.88,73982.5,7.65,5.49,8.09,0,*7B
1498493212.12,38203,21.88,73986.0,7.65,7.55,8.59,0,*70
1498493213.31,38204,21.88,73986.0,7.65,9.25,7.09,0,*74
1498493214.49,38205,21.88,73984.5,7.67,5.95,7.05,0,*7C
1498493215.69,38206,21.88,73986.8,7.71,4.07,4.59,0,*78
1498493216.86,38207,21.88,73984.5,7.67,4.33,4.15,0,*71
1498493218.04,38208,21.88,73984.5,7.71,3.81,4.07,0,*74
1498493219.22,38209,21.88,73986.3,7.71,4.15,4.15,0,*7C
1498493220.42,38210,21.88,73986.0,7.67,4.05,4.11,0,*76
1498493221.59,38211,21.88,73986.3,7.67,4.27,4.15,0,*73
1498493222.77,38212,21.81,73984.0,7.71,4.41,4.37,0,*77
1498493223.97,38213,21.88,73988.0,7.71,4.53,4.31,0,*73
1498493225.22,38214,21.88,73988.8,7.73,4.63,4.31,0,*75
1498493226.43,38215,21.81,73986.8,7.71,4.63,4.37,0,*70
1498493227.63,38216,21.88,73988.0,7.71,4.59,4.27,0,*7B
1498493228.82,38217,21.88,73988.0,7.73,4.53,4.15,0,*73
1498493230.05,38218,21.88,73990.5,7.73,4.71,4.27,0,*7D
1498493231.27,38219,21.88,73990.5,7.73,4.71,4.27,0,*7C
1498493232.44,38220,21.81,73988.0,7.75,4.57,4.19,0,*79
1498493233.64,38221,21.88,73990.5,7.73,4.49,3.93,0,*74
1498493234.84,38222,21.81,73988.8,7.75,4.63,3.93,0,*79
1498493236.06,38223,21.88,73990.3,7.73,4.53,4.05,0,*75
1498493237.27,38224,21.88,73988.3,7.73,4.53,3.93,0,*7A
1498493238.44,38225,21.88,73990.5,7.75,4.45,3.93,0,*7A
1498493239.66,38226,21.81,73988.3,7.73,4.27,3.79,0,*7F
1498493240.89,38227,21.88,73992.3,7.73,4.31,3.81,0,*7E
1498493242.14,38228,21.88,73994.5,7.73,4.63,4.05,0,*7D
1498493243.34,38229,21.81,73988.8,7.75,4.93,4.19,0,*78
1498493244.59,38230,21.88,73994.8,7.73,5.51,4.97,0,*7F
1498493245.77,38231,21.81,73990.5,7.75,4.07,3.81,0,*7A
1498493246.99,38232,21.88,73994.0,7.73,3.71,3.55,0,*70
1498493248.21,38233,21.81,73990.0,7.73,3.71,3.59,0,*7D
1498493249.43,38234,21.88,73994.0,7.73,3.71,3.59,0,*7A
1498493250.64,38235,21.81,73988.0,7.75,3.81,3.49,0,*73
1498493251.89,38236,21.88,73988.5,7.73,3.71,3.45,0,*75
1498493253.11,38237,21.88,73988.8,7.75,3.97,3.49,0,*76
1498493254.32,38238,21.81,73984.5,7.73,4.07,3.29,0,*77
1498493255.56,38239,21.88,73990.3,7.73,4.05,3.19,0,*77
1498493256.76,38240,21.88,73986.5,7.71,4.41,3.23,0,*72
1498493257.96,38241,21.88,73986.8,7.71,4.19,3.07,0,*78
1498493259.13,38242,21.81,73986.5,7.71,3.81,2.95,0,*77
1498493260.35,38243,21.81,73984.0,7.71,3.49,2.77,0,*7E
1498493261.58,38244,21.88,73986.3,7.71,3.49,2.73,0,*7D
1498493262.76,38245,21.81,73984.0,7.71,3.29,2.65,0,*7D
1498493263.95,38246,21.88,73986.3,7.67,2.85,2.31,0,*7F
1498493265.12,38247,21.81,73982.8,7.71,2.95,2.27,0,*7F
1498493266.34,38248,21.81,73984.3,7.67,2.59,2.21,0,*71
1498493267.56,38249,21.88,73988.0,7.67,2.51,2.21,0,*78
1498493268.79,38250,21.81,73984.0,7.71,2.47,2.25,0,*74
1498493270.02,38251,21.81,73982.8,7.71,2.05,2.13,0,*76
1498493271.24,38252,21.81,73984.5,7.67,1.97,2.09,0,*71
1498493272.5,38253,21.88,73984.8,7.65,1.97,2.09,0,*72
1498493273.72,38254,21.88,73988.0,7.65,1.83,2.09,0,*70
1498493274.92,38255,21.88,73984.5,7.63,1.83,2.21,0,*7D
1498493276.14,38256,21.88,73984.3,7.65,1.93,2.27,0,*7F
1498493277.4,38257,21.81,73980.3,7.65,2.17,2.47,0,*77
1498493278.65,38258,21.81,73980.8,7.65,2.05,2.47,0,*7B
1498493279.9,38259,21.81,73980.5,7.65,1.93,2.47,0,*76
1498493281.15,38260,21.81,73980.3,7.65,1.85,2.47,0,*7B
1498493282.38,38261,21.81,73982.5,7.65,1.75,2.47,0,*75
1498493283.63,38262,21.81,73980.3,7.65,1.93,2.39,0,*77
1498493284.89,38263,21.81,73982.8,7.65,1.85,2.39,0,*71
1498493286.14,38264,21.81,73984.0,7.65,2.05,2.43,0,*70
1498493287.35,38265,21.81,73986.8,7.65,2.27,2.65,0,*75
1498493288.55,38266,21.88,73988.0,7.67,2.35,2.73,0,*70
1498493289.77,38267,21.81,73988.5,7.67,2.47,2.69,0,*7F
1498493291.0,38268,21.81,73988.8,7.67,2.47,2.51,0,*7B
1498493292.21,38269,21.81,73988.5,7.71,2.65,2.51,0,*7D
1498493293.44,38270,21.81,73990.8,7.67,2.73,2.51,0,*75
1498493294.63,38271,21.81,73990.5,7.67,2.47,2.31,0,*75
1498493295.81,38272,21.81,73992.5,7.71,2.27,2.27,0,*70
1498493296.98,38273,21.81,73990.5,7.71,2.61,2.35,0,*70
1498493298.15,38274,21.81,73994.3,7.67,2.35,2.31,0,*75
1498493299.35,38275,21.81,73990.0,7.71,2.51,2.27,0,*76
1498493300.55,38276,21.81,73994.8,7.67,2.59,2.35,0,*79
1498493301.77,38277,21.81,73990.5,7.67,2.59,2.25,0,*79
1498493302.95,38278,21.81,73988.5,7.71,2.65,2.35,0,*7F
1498493304.15,38279,21.81,73988.0,7.67,2.59,2.35,0,*76
1498493305.38,38280,21.81,73984.5,7.67,2.51,2.51,0,*7A
1498493306.6,38281,21.81,73986.8,7.71,2.55,2.55,0,*7C
1498493307.83,38282,21.81,73982.8,7.67,2.47,2.43,0,*7C
1498493309.05,38283,21.81,73984.0,7.67,2.47,2.47,0,*79
1498493310.28,38284,21.81,73984.3,7.67,2.73,2.59,0,*76
1498493311.48,38285,21.81,73984.5,7.71,2.77,2.61,0,*7F
1498493312.68,38286,21.81,73990.3,7.71,2.65,2.55,0,*78
1498493313.91,38287,21.81,73990.0,7.75,2.77,2.51,0,*7A
1498493315.13,38288,21.81,73990.8,7.71,2.55,2.25,0,*72
1498493316.33,38289,21.81,73992.3,7.71,2.51,2.27,0,*75
1498493317.51,38290,21.81,73994.0,7.71,2.65,2.61,0,*78
1498493318.74,38291,21.81,73990.8,7.67,2.51,2.73,0,*7A
1498493319.94,38292,21.81,73994.8,7.71,3.37,2.95,0,*77
1498493321.17,38293,21.81,73992.5,7.71,3.37,2.51,0,*7E
1498493322.4,38294,21.81,73990.3,7.67,3.03,2.43,0,*7A
1498493323.6,38295,21.81,73988.0,7.71,3.49,2.61,0,*72
1498493324.83,38296,21.81,73984.8,7.67,9.39,3.33,0,*7D
1498493326.05,38297,21.81,73988.3,7.67,8.51,5.85,0,*78
1498493327.26,38298,21.81,73988.8,7.67,6.87,8.61,0,*75
1498493328.46,38299,21.81,73990.3,7.67,8.37,8.61,0,*71
1498493329.66,38300,21.81,73988.3,7.67,4.15,3.45,0,*71